Weather in Petrivske

Ukraine / Donetsk Region     47°39′39″N   37°09′58″E
temp.,
°C
wind,
m/s
gust,
m/s
humid.,
%
clouds,
%
prec.,
mm/h
press.,
hPa
HPBL,
m
26 february, fri
fri2623:000wsw6996100 0.1 1027214
02:00+1w61198100 0.1 1026268
05:00+2w5999100 0.1 1025205
08:00+2w4999100 0.1 1024236
11:00+3wnw4898100 0.0 1024273
14:00+4w4897100 0.0 1022279
17:00+3wsw5109778 0.0 1021315
20:00+3wsw6109790 0.0 1020371
27 february, sat
sat2723:00+3wsw51098100 0.0 1018341
02:00+3w51098100 0.0 1017319
05:00+2w4798100 0.0 1015189
08:00+3wsw4798100 0.0 1015212
11:00+4wsw5998100 0.0 1014317
14:00+3wnw4998100 0.8 1013306
17:00+2wnw4896100 0.4 1013359
20:00+2wnw41092100 0.4 1014377
28 february, sun
sun2823:000nw589794 0.0 1015324
02:00+1nw359798 0.1 1016250
05:00+1nw3698100 0.1 1016343
08:00+1wnw349495 0.1 1017249
11:00+2nnw458999 0.1 1017506
14:00+3nnw357999 0.3 1018625
17:00+2nnw368298 0.2 1019407
20:00+1nnw258898 0.3 1021151
1 march, mon
mon123:000n369783 0.3 1022364
02:00−2n249569 0.3 102397
05:00−2n24935 0.0 1024113
08:000n348241 0.0 1025394
11:00+2n336895 0.0 1027822
14:00+3nnw236395 0.1 1027950
17:00+1nw2272100 0.1 102743
20:000nnw2484100 0.3 1029142
2 march, tue
tue223:00−1nnw229568 0.0 102948
02:00−2nw229654 0.0 103079
05:00−2nw239461 0.0 1029155
08:00−1wnw347559 0.0 1029355
11:00+3w565869 0.0 1028849
14:00+4w686483 0.0 10261065
17:00+2w61080100 0.0 1024653
20:00+2w61284100 0.0 1023567